PVV9941 EKCH-EHEH

Flight info

Callsign PVV9941
Flight time N/A
Altitude 32000
Route NEXEN T503 MICOS DCT NIE DCT DENOL DCT DOMEG DCT ROTEK DCT DERUV DCT SOMEM DCT EH588 DCT MITSA DCT ERSUL
Aircraft B742/H-SDFHIRWXY/L

Departure

Time 2026-05-06 15:27
Airport Copenhagen Kastrup Airport (EKCH)

Arrival

Time N/A
Airport Eindhoven Airport (EHEH)
Time Latitude Longitude Altitude Speed Heading
2026-05-06 14:53 55.61874 12.67132 14 ft 0 kts 80°
2026-05-06 15:07 55.61873 12.67119 14 ft 2 kts 84°
2026-05-06 15:07 55.61872 12.67093 13 ft 2 kts 96°
2026-05-06 15:08 55.61875 12.67067 13 ft 2 kts 105°
2026-05-06 15:08 55.61879 12.67042 12 ft 2 kts 114°
2026-05-06 15:08 55.61886 12.67019 12 ft 2 kts 123°
2026-05-06 15:08 55.61895 12.66997 12 ft 2 kts 133°
2026-05-06 15:09 55.61906 12.66978 11 ft 2 kts 142°
2026-05-06 15:09 55.61919 12.66963 11 ft 2 kts 152°
2026-05-06 15:09 55.61932 12.66952 11 ft 2 kts 161°
2026-05-06 15:09 55.61946 12.66945 12 ft 1 kts 171°
2026-05-06 15:10 55.61948 12.66943 12 ft 0 kts 166°
2026-05-06 15:14 55.61940 12.66947 11 ft 3 kts 166°
2026-05-06 15:14 55.61899 12.66930 10 ft 9 kts 229°
2026-05-06 15:15 55.61876 12.66780 10 ft 15 kts 259°
2026-05-06 15:15 55.61856 12.66598 10 ft 12 kts 259°
2026-05-06 15:15 55.61836 12.66450 10 ft 10 kts 229°
2026-05-06 15:15 55.61769 12.66401 10 ft 10 kts 195°
2026-05-06 15:16 55.61699 12.66348 10 ft 11 kts 215°
2026-05-06 15:16 55.61673 12.66308 10 ft 0 kts 230°
2026-05-06 15:21 55.61664 12.66283 10 ft 5 kts 243°
2026-05-06 15:21 55.61631 12.66163 11 ft 16 kts 248°
2026-05-06 15:22 55.61665 12.65923 14 ft 26 kts 302°
2026-05-06 15:22 55.61793 12.65589 17 ft 38 kts 304°
2026-05-06 15:22 55.61943 12.65185 17 ft 31 kts 303°
2026-05-06 15:22 55.62006 12.64996 17 ft 12 kts 277°
2026-05-06 15:23 55.61958 12.64888 17 ft 11 kts 213°
2026-05-06 15:23 55.61887 12.64808 17 ft 13 kts 213°
2026-05-06 15:23 55.61800 12.64709 17 ft 16 kts 213°
2026-05-06 15:23 55.61693 12.64589 17 ft 19 kts 214°
2026-05-06 15:24 55.61567 12.64442 17 ft 23 kts 213°
2026-05-06 15:24 55.61422 12.64275 18 ft 26 kts 213°
2026-05-06 15:24 55.61257 12.64086 19 ft 29 kts 213°
2026-05-06 15:24 55.61082 12.63884 19 ft 27 kts 213°
2026-05-06 15:25 55.60909 12.63686 19 ft 31 kts 213°
2026-05-06 15:25 55.60714 12.63463 17 ft 33 kts 214°
2026-05-06 15:25 55.60590 12.63294 16 ft 16 kts 222°
2026-05-06 15:25 55.60518 12.63210 16 ft 10 kts 185°
2026-05-06 15:26 55.60460 12.63270 15 ft 10 kts 133°
2026-05-06 15:26 55.60406 12.63399 14 ft 13 kts 103°
2026-05-06 15:26 55.60441 12.63508 14 ft 0 kts 42°
2026-05-06 15:26 55.60450 12.63522 14 ft 17 kts 41°
2026-05-06 15:27 55.60768 12.64016 17 ft 104 kts 42°
2026-05-06 15:27 55.61521 12.65168 47 ft 174 kts 42°
2026-05-06 15:27 55.62511 12.66609 619 ft 192 kts 43°